Tracking 26325 objects as of 28-Nov-2022
HD Live streaming from Space Station
objects crossing your sky now

WESTFORD NEEDLES

Track WESTFORD NEEDLES now!
10-day predictions
WESTFORD NEEDLES is classified as:


NORAD ID: 3257
Int'l Code: 1963-014BX
Perigee: 3,360.5 km
Apogee: 3,944.8 km
Inclination: 87.3 °
Period: 166.5 minutes
Semi major axis: 10023 km
RCS: 0.1816 m2 (medium)
Launch date: May 9, 1963
Source: United States (US)
Launch site: AIR FORCE WESTERN TEST RANGE (AFWTR)
aabbcc
Your satellite tracking list
Your tracking list is empty




NASA's NSSDC Master Catalog

Two Line Element Set (TLE):
1 03257U 63014BX  22331.77462168 -.00000490  00000-0 -22167+0 0  9995
2 03257  87.3041 271.1508 0291468 280.2850  76.5267  8.65091165284649
Source of the keplerian elements: AFSPC